Weather in Novoye Aksubayevo

Russia / Republic of Tatarstan     54°50′08″N   50°54′10″E
temp.,
°C
wind,
m/s
gust,
m/s
humid.,
%
clouds,
%
prec.,
mm/h
press.,
hPa
HPBL,
m
14 april, wed
wed1400:00+10sse33845 0.0 103246
03:00+8sse33825 0.0 103226
06:00+8sse358612 0.0 103290
09:00+13sse45805 0.0 1031410
12:00+16sse456536 0.0 1029693
15:00+17se45585 0.0 1028861
18:00+14se36702 0.0 1026122
21:00+11se39795 0.0 1026152
15 april, thu
thu1500:00+9sse38891 0.0 1025139
03:00+8sse34860 0.0 102459
06:00+8se35800 0.0 1023115
09:00+14sse46590 0.0 1022430
12:00+18s45475 0.0 1021943
15:00+19ssw464075 0.0 10191405
18:00+16ssw225474 0.0 101911
21:00+13s22612 0.0 101910
16 april, fri
fri1600:00+11s11680 0.0 101910
03:00+10nne11742 0.0 101910
06:00+9ne357727 0.0 101982
09:00+13ne67685 0.0 1020510
12:00+15ne66605 0.0 1021902
15:00+15ne77562 0.0 10211128
18:00+12ne711684 0.0 1022578
21:00+8ne611815 0.0 1024396
17 april, sat
sat1700:00+6ne612815 0.0 1024406
03:00+5ne613784 0.0 1025409
06:00+4ne512740 0.0 1026417
09:00+8ne69501 0.0 1026756
12:00+11ne78345 0.0 10261180
15:00+12ne67331 0.0 10251361
18:00+9ne48450 0.0 1025234
21:00+6nne34580 0.0 102655
18 april, sun
sun1800:00+5nne35680 0.0 102683
03:00+4nne34725 0.0 102664
06:00+4nne38730 0.0 1026235
09:00+9nne57500 0.0 1026915
12:00+11nne57435 0.0 10261582
15:00+12nne674184 0.0 10261941
18:00+9ne79565 0.0 1027909
21:00+5ene812485 0.0 1029652